Location: Angwan Shehu
(11.2514°N, 7.4613°E)
Time: 23:51:11
(UTC+00:00)

Vanguard 3 - Pass Details

Date: 04 August 2021
Orbit: 510 x 3260 km, 33.3° (Epoch: 18 September)

Event Time Altitude Azimuth Distance (km) Brightness Sun altitude
Rises 20:58:39 0° 305° (NW) 6,722 12.7 -41.9°
Reaches altitude 10° 21:03:08 10° 311° (NW) 5,925 12.1 -42.8°
Maximum altitude 21:22:10 53° 24° (NNE) 3,699 10.3 -46.5°
Enters shadow 21:25:43 49° 52° (NE) 3,733 10.2 -47.1°
